This is the latest recevied weather packets stored in our database for station/object W7TTE. If no packets are shown the sender has not sent any weather packets the latest 10 day(s).
| Time | Temp. | Humidity | Pressure | Rain* | Wind** | Luminosity | Snow |
|---|---|---|---|---|---|---|---|
| 1777943644 | 23.89° C | 43% | 1013.1 hPa | 0 mm | - | 45 W/m² | - |
| 1777943341 | 24.44° C | 43% | 1013.3 hPa | 0 mm | - | 53 W/m² | - |
| 1777943036 | 24.44° C | 43% | 1012.8 hPa | 0 mm | - | 59 W/m² | - |
| 1777942733 | 24.44° C | 42% | 1013.1 hPa | 0 mm | - | 73 W/m² | - |
| 1777942429 | 24.44° C | 42% | 1013.1 hPa | 0 mm | - | 65 W/m² | - |
| 1777942127 | 24.44° C | 42% | 1012.9 hPa | 0 mm | - | 60 W/m² | - |
| 1777941823 | 24.44° C | 43% | 1013 hPa | 0 mm | - | 69 W/m² | - |
| 1777941521 | 24.44° C | 42% | 1013 hPa | 0 mm | - | 77 W/m² | - |
| 1777941218 | 24.44° C | 42% | 1012.9 hPa | 0 mm | - | 101 W/m² | - |
| 1777940914 | 24.44° C | 42% | 1013.1 hPa | 0 mm | - | 108 W/m² | - |
| 1777940611 | 25° C | 42% | 1013.4 hPa | 0 mm | - | 110 W/m² | - |
| 1777940309 | 25° C | 41% | 1013.1 hPa | 0 mm | - | 125 W/m² | - |
| 1777940006 | 24.44° C | 42% | 1013.3 hPa | 0 mm | - | 141 W/m² | - |
| 1777939703 | 24.44° C | 42% | 1013.5 hPa | 0 mm | - | 156 W/m² | - |
| 1777939401 | 25° C | 41% | 1013.4 hPa | 0 mm | - | 149 W/m² | - |
| 1777939097 | 25° C | 41% | 1013.4 hPa | 0 mm | - | 169 W/m² | - |
| 1777938794 | 24.44° C | 42% | 1013.4 hPa | 0 mm | - | 178 W/m² | - |
| 1777938491 | 25° C | 42% | 1013 hPa | 0 mm | - | 177 W/m² | - |
| 1777938189 | 25° C | 42% | 1013.3 hPa | 0 mm | - | 189 W/m² | - |
| 1777937885 | 25° C | 42% | 1013.4 hPa | 0 mm | - | 176 W/m² | - |
| 1777937581 | 25° C | 42% | 1013.3 hPa | 0 mm | - | 174 W/m² | - |
| 1777937278 | 25° C | 42% | 1013.5 hPa | 0 mm | - | 217 W/m² | - |
| 1777936975 | 25° C | 42% | 1013.5 hPa | 0 mm | - | 203 W/m² | - |
| 1777936672 | 25° C | 41% | 1013.6 hPa | 0 mm | - | 215 W/m² | - |
| 1777936368 | 25° C | 42% | 1013.6 hPa | 0 mm | - | 259 W/m² | - |
* Rain latest hour (hover to see other rain measurements)
** Current wind speed in m/s (hover to see current wind gust speed)